Temperature
23 22 22 22 24 26 29 31 31 30 30 29 29 28 27 26 25 23 22 22 21 20 20 20 19 19 19 19 19 19 19 19 19 19 19 19 19 19 19 19 19 19 19 19 19 19 19 19 19
23 22 23 24 25 28 30 31 30 30 30 30 29 28 27 25 24 23 22 22 21 20 20 20 20 19 19 19 19 19 19 19 19 19 19 19 19 19 19 19 19 19 19 19 19 19 19 19 19
23 23 25 27 29 30 31 31 31 31 30 30 28 27 26 24 23 22 22 22 21 20 20 20 20 20 19 19 19 19 19 19 19 19 19 19 19 19 19 19 19 19 19 19 19 19 19 19 19
23 25 27 29 31 32 32 32 32 31 31 30 29 27 24 24 23 22 22 22 21 20 20 20 20 20 19 19 19 19 19 19 19 19 19 19 19 19 19 18 18 18 18 18 18 19 19 19 19
25 27 29 31 32 33 33 33 32 32 31 29 28 26 24 23 23 22 22 22 21 20 20 20 20 19 19 19 19 19 19 19 19 19 19 19 19 19 19 19 19 18 18 18 18 18 18 19 19
27 28 29 31 32 33 34 33 32 32 31 29 28 26 24 23 23 22 22 22 21 20 20 20 20 19 19 19 19 19 19 19 19 19 19 19 19 19 19 19 18 18 18 18 18 18 18 18 19
29 30 31 32 32 33 34 33 33 32 31 30 28 26 24 23 23 23 22 22 21 20 20 20 19 19 19 19 19 19 19 19 19 19 19 19 19 18 19 19 18 18 18 18 18 18 18 18 19
31 31 31 32 32 32 34 33 32 32 31 30 29 27 24 23 23 23 22 22 21 21 20 19 19 19 19 19 19 19 19 19 19 19 19 19 19 19 18 18 18 18 18 18 18 18 18 18 19
32 31 31 33 33 33 34 33 32 31 30 29 28 27 25 24 24 23 22 22 21 21 20 20 19 19 19 19 19 19 19 19 19 19 19 18 18 18 18 18 18 18 18 18 18 19 18 18 19
34 32 32 34 34 34 34 33 32 32 30 29 27 26 25 24 24 23 23 22 21 21 20 20 20 19 19 19 19 19 19 19 19 19 19 18 18 18 18 18 18 18 18 18 18 18 18 18 18
35 34 34 35 34 34 34 34 33 32 31 29 27 26 25 25 24 24 23 22 21 21 20 20 20 20 19 19 19 19 19 19 18 18 18 18 18 18 18 18 18 18 18 18 18 18 18 18 18
35 35 35 35 34 34 34 34 33 32 31 29 28 27 26 25 25 24 23 22 21 21 20 20 20 20 20 19 19 19 19 19 18 18 18 18 18 18 18 18 18 18 18 18 18 18 18 18 18
35 35 35 35 35 34 34 33 33 32 30 29 28 27 26 26 25 24 23 22 21 21 20 20 20 20 20 19 19 19 19 19 19 19 19 19 19 19 18 18 18 18 18 18 18 18 18 18 18
35 35 35 35 35 34 34 33 32 31 30 29 28 27 27 26 25 24 23 22 21 21 20 20 20 20 20 20 19 19 19 19 19 19 19 19 19 19 18 18 18 18 18 18 18 18 18 18 18
35 35 35 35 35 35 34 32 31 31 30 29 29 28 27 26 25 24 23 22 22 21 20 20 20 20 20 19 19 19 19 19 19 19 19 19 19 19 19 18 18 18 18 18 18 18 18 18 18
34 34 33 35 35 35 34 31 31 31 30 30 29 28 27 26 26 25 24 23 22 21 20 20 20 20 20 19 19 19 19 19 19 19 19 19 19 19 18 18 18 18 18 18 18 18 18 18 18
33 32 32 34 35 35 34 32 32 31 31 30 29 28 27 26 26 25 24 23 22 21 21 20 20 20 20 20 19 19 19 19 19 19 19 19 19 18 19 18 18 18 18 18 18 18 18 18 18
32 32 33 34 35 35 34 33 32 31 31 30 29 29 28 27 26 25 24 23 22 21 21 20 20 20 20 20 19 19 19 19 19 19 19 19 19 19 19 19 18 18 18 18 18 18 18 18 18
34 33 33 34 35 35 34 33 33 32 32 31 30 29 28 27 26 25 24 23 22 21 21 21 20 20 20 20 20 20 19 19 19 19 19 19 19 19 19 19 18 18 18 18 18 18 18 18 19
34 33 33 34 35 35 34 34 34 34 33 31 30 29 28 27 26 25 24 23 22 21 21 21 20 20 20 20 20 20 20 19 19 19 19 19 19 19 19 19 19 19 19 18 18 18 18 19 18
33 33 33 33 34 34 34 33 33 33 33 32 31 30 29 28 27 25 24 24 23 22 21 21 21 20 20 20 20 20 20 19 19 19 19 19 19 19 19 19 19 19 19 19 19 19 19 19 19
33 34 34 34 33 33 33 31 31 32 32 32 32 31 30 29 27 26 25 24 23 22 22 21 21 21 20 20 20 20 20 20 20 20 19 19 19 19 19 19 19 19 19 19 19 19 19 19 19
34 35 34 34 33 33 33 32 31 31 31 31 32 31 30 29 28 26 25 24 24 23 22 21 21 20 20 20 20 20 20 20 20 20 19 19 19 19 19 19 19 19 19 19 19 19 19 19 19
35 34 34 34 33 31 32 32 30 30 30 30 31 31 31 30 28 27 26 25 24 23 22 21 21 21 20 20 20 20 20 20 20 20 20 19 19 19 19 19 19 19 19 19 19 19 19 19 19
34 33 31 31 30 30 32 32 30 31 32 31 31 31 31 30 29 28 26 25 24 23 23 22 21 21 21 20 20 20 20 20 20 20 19 19 19 19 19 19 19 19 19 19 19 19 19 19 19
33 33 31 30 30 30 31 31 31 33 32 32 31 31 31 30 29 28 27 25 24 24 23 22 21 21 21 20 20 20 20 20 20 20 20 20 20 19 19 19 19 19 19 19 19 19 19 19 19
32 32 33 32 31 30 30 31 31 32 32 32 32 31 31 30 29 28 27 26 25 24 23 22 22 21 21 20 20 20 20 20 20 20 20 20 20 20 20 19 19 19 19 19 19 19 19 18 19
33 33 32 31 30 29 30 30 30 31 31 32 32 31 30 30 29 28 27 26 25 24 23 23 22 21 21 20 20 20 20 20 20 20 20 20 20 20 20 19 19 19 19 19 19 19 19 18 18
32 32 32 31 31 30 29 29 30 30 30 30 30 30 29 29 29 28 27 26 25 24 24 23 22 21 21 20 20 20 19 19 20 19 19 19 19 19 19 19 19 19 19 19 19 19 18 18 18
32 32 32 30 30 30 29 29 31 31 31 31 30 29 28 28 27 27 26 25 25 24 24 23 22 21 21 20 20 19 19 19 19 19 19 19 19 19 19 19 19 19 19 18 18 18 18 18 18
Wind_Speed
11 12 10 6 5 3 11 15 14 13 14 14 13 13 15 15 10 8 6 10 12 11 11 13 13 13 14 15 15 16 16 17 17 17 17 18 18 19 19 19 18 18 18 17 17 16 16 14 14
11 12 8 4 3 5 13 13 13 13 11 11 14 15 15 14 12 8 8 9 11 11 11 13 14 14 14 14 16 16 16 17 17 18 18 18 18 19 19 18 18 18 17 17 16 16 15 14 14
11 14 7 4 2 11 14 12 12 12 11 12 14 14 11 10 10 7 8 9 11 12 13 14 15 14 14 14 15 16 17 17 18 18 18 18 18 18 18 18 18 18 17 16 15 14 14 13 13
7 7 6 2 8 13 13 11 11 12 12 12 12 11 11 11 8 9 10 11 13 13 14 15 15 15 14 13 14 15 16 17 17 17 17 17 18 18 17 18 18 17 17 16 14 14 13 13 12
9 6 4 4 10 13 12 11 11 13 13 14 16 14 12 12 13 11 10 11 13 12 13 14 15 14 14 13 13 14 15 16 17 17 17 17 17 17 17 18 18 17 16 15 14 13 12 12 12
5 5 1 6 11 12 12 12 12 14 13 13 14 14 11 10 12 10 11 11 11 13 12 13 14 14 13 13 13 14 15 16 17 17 17 17 17 17 16 17 17 16 16 15 14 12 12 12 10
9 6 3 8 10 11 12 12 13 13 12 11 12 13 10 11 11 11 11 11 11 12 12 11 11 12 13 12 13 14 16 16 16 16 17 17 17 17 17 17 17 16 15 15 14 12 12 10 9
6 4 4 7 10 11 11 13 13 12 12 9 9 10 11 12 12 12 12 11 10 10 11 10 10 11 11 11 12 15 16 16 16 16 17 18 17 16 16 16 16 16 15 14 13 12 11 10 9
6 3 5 8 9 9 10 11 12 11 13 13 14 16 15 14 14 13 12 11 10 10 9 9 9 10 9 10 11 13 14 14 15 15 17 16 14 14 15 16 17 16 15 14 13 12 11 9 8
2 1 5 8 8 8 8 9 9 9 12 14 16 16 16 13 12 12 12 11 10 9 9 8 7 9 9 8 9 9 10 11 11 11 13 12 11 12 14 16 17 16 15 14 13 12 11 9 8
2 2 5 6 6 6 7 8 8 9 10 13 15 16 15 13 11 12 11 11 10 9 9 8 6 6 7 6 7 6 7 8 9 10 11 10 10 9 10 10 12 13 13 11 11 11 9 9 7
2 1 3 4 5 5 7 9 10 10 12 14 15 16 14 13 11 11 11 11 11 10 9 8 7 5 4 5 5 6 6 6 6 9 10 8 5 5 6 6 8 9 9 8 8 6 6 6 6
4 2 1 2 3 4 6 8 9 11 12 14 15 15 14 13 12 11 11 11 10 10 9 9 7 5 4 3 3 6 5 6 8 9 8 9 6 6 6 4 5 6 7 7 5 4 4 4 4
6 4 3 2 2 3 5 6 6 11 12 13 14 13 13 13 13 12 11 11 10 9 9 9 8 7 4 3 2 3 5 6 7 7 8 8 6 5 5 5 4 4 5 5 4 3 4 3 3
9 8 7 4 4 3 4 4 4 8 11 13 13 12 12 13 13 12 12 12 11 10 9 9 9 8 5 4 4 4 4 6 5 6 8 7 7 6 5 5 5 4 6 6 4 4 3 3 3
12 10 9 7 7 6 4 4 9 10 10 11 12 12 12 12 12 12 12 11 11 10 9 8 8 9 7 5 3 3 4 5 5 6 7 8 7 7 5 4 5 6 6 5 4 4 3 3 2
11 10 10 7 8 5 4 4 9 9 10 11 11 12 12 12 12 12 12 12 11 10 9 7 7 8 7 6 4 3 3 4 5 6 6 7 8 8 5 4 4 5 4 4 5 5 3 3 2
10 10 10 7 6 5 5 6 11 11 10 11 12 12 12 12 12 12 12 12 11 10 9 8 7 7 6 6 4 3 4 4 4 4 5 7 7 7 5 4 5 5 4 4 3 4 3 3 3
12 11 10 8 4 5 5 6 10 13 13 12 13 13 13 12 12 12 12 13 12 10 9 8 7 7 6 5 5 5 5 5 5 5 6 7 6 6 4 3 5 4 4 4 4 3 4 4 3
12 13 11 8 7 7 6 6 6 10 12 13 14 15 14 14 14 13 12 12 12 11 10 9 8 8 7 5 4 4 5 5 5 4 6 7 7 6 7 5 5 5 4 4 4 4 3 4 3
13 13 12 9 9 10 10 8 6 7 9 11 12 14 15 16 16 15 14 13 13 13 12 10 9 8 8 6 4 4 4 4 4 5 6 6 7 6 4 5 5 4 4 4 5 5 5 3 3
13 12 12 12 11 10 9 7 5 7 9 10 13 14 14 14 15 15 14 14 13 13 13 10 9 8 7 7 6 6 5 5 5 6 6 7 7 7 7 6 6 5 4 5 6 6 4 4 4
13 12 12 13 13 13 11 9 6 7 8 9 9 12 13 13 15 16 15 14 13 13 13 11 9 8 7 7 6 6 5 4 4 5 6 7 6 7 7 7 6 6 5 6 6 4 5 4 4
12 13 14 13 12 13 14 12 7 6 6 5 5 8 11 13 13 15 14 12 11 12 12 12 10 8 8 7 6 6 6 5 5 5 6 6 5 6 8 8 7 7 6 6 6 5 6 4 4
13 13 10 11 10 11 13 10 5 7 7 7 7 9 10 10 12 14 15 14 12 11 11 12 11 9 9 8 6 6 6 5 5 5 6 6 5 6 7 7 6 6 6 6 6 6 6 5 5
13 14 11 11 10 8 9 8 5 8 9 8 8 8 8 9 10 13 14 14 13 12 11 11 11 10 9 9 7 6 6 5 5 5 5 5 4 5 6 7 6 6 6 6 5 5 6 6 6
13 13 15 15 14 11 7 4 4 4 6 9 8 8 8 8 9 10 12 13 13 12 11 11 11 10 10 9 8 7 7 6 5 5 5 4 4 5 6 6 7 6 6 5 5 5 6 5 6
14 13 10 11 9 11 9 8 4 5 3 4 6 7 6 5 8 8 10 11 12 12 10 10 10 10 9 8 8 8 7 6 5 5 5 5 4 4 5 5 6 6 6 6 5 5 5 5 5
11 13 11 10 11 11 9 4 2 2 3 3 3 5 6 4 5 6 7 7 8 10 11 10 9 10 10 9 8 6 7 6 6 5 4 4 4 4 4 4 5 5 5 6 5 6 5 5 5
12 13 12 10 10 11 11 5 3 3 4 5 5 6 6 4 5 5 6 5 5 6 8 9 9 9 9 8 7 7 6 6 6 6 5 4 4 4 4 4 4 5 6 5 6 6 6 6 5
Wind_Direction
192 208 214 237 257 240 59 59 58 57 61 61 60 65 62 51 54 76 81 80 93 99 106 106 110 115 121 124 124 126 129 129 128 128 128 127 127 128 128 128 127 126 126 126 125 125 124 122 122
213 219 222 245 260 60 66 63 64 66 70 75 71 69 70 62 67 81 79 87 96 98 104 108 112 115 120 124 126 129 131 131 130 130 131 131 130 132 132 132 130 129 128 128 128 127 125 125 126
244 250 250 241 39 61 66 68 74 76 76 77 73 62 60 68 68 78 90 97 95 96 104 107 112 117 122 123 125 128 130 133 133 133 134 134 135 136 135 134 132 131 130 130 131 130 127 127 129
238 241 239 266 47 61 66 69 81 79 73 73 79 76 69 69 81 88 98 98 97 98 103 109 110 115 118 121 124 128 131 134 136 137 138 138 139 139 140 136 135 134 133 134 133 133 132 133 134
242 264 258 50 63 70 71 70 75 79 75 75 82 89 85 81 92 96 99 96 99 102 104 112 113 116 118 121 124 130 134 137 138 139 140 140 139 139 139 139 138 138 137 135 133 134 133 138 141
254 261 310 61 65 68 75 81 77 78 82 86 91 94 94 101 99 101 99 94 97 106 107 115 118 120 121 124 127 133 137 139 141 141 141 142 142 140 139 140 139 139 139 139 138 135 133 137 144
264 290 18 69 72 65 64 67 74 81 79 85 98 100 108 108 109 106 104 103 104 107 113 116 121 121 122 125 128 134 138 138 140 142 143 145 144 144 142 142 144 145 145 144 142 140 137 139 148
268 308 12 64 72 71 72 71 71 80 80 84 99 103 117 120 122 112 106 104 100 104 112 115 122 123 124 126 129 135 139 141 142 144 146 147 148 149 150 150 150 151 149 149 148 146 147 149 156
273 316 35 55 67 75 78 81 85 90 88 80 82 101 119 128 125 118 112 107 105 102 103 106 113 123 124 124 132 138 139 142 146 150 151 152 155 155 157 154 154 156 155 154 156 157 157 160 174
247 63 61 60 63 72 74 86 95 103 101 97 100 109 123 132 132 127 123 120 114 110 108 106 112 120 122 124 126 131 137 140 148 151 155 159 161 155 150 152 156 157 158 159 163 167 170 181 190
331 49 59 64 66 72 80 80 87 90 103 114 122 126 131 135 132 127 125 122 120 116 110 111 106 108 120 123 134 137 135 140 150 152 155 158 152 149 146 153 159 165 168 171 173 181 190 195 195
318 6 57 68 67 70 83 81 76 79 97 117 127 132 137 138 133 130 125 121 121 119 117 119 112 105 97 112 127 134 138 141 142 145 152 148 146 147 149 158 166 173 173 173 173 188 194 196 196
283 272 160 132 121 101 94 95 98 102 109 121 128 136 139 138 135 129 125 126 127 126 127 123 121 112 95 89 124 129 132 138 140 145 158 154 149 152 154 162 164 177 175 171 173 183 187 190 202
285 282 264 225 147 135 111 98 105 117 125 131 137 142 144 141 139 138 137 134 132 132 133 130 133 130 128 127 122 118 131 134 138 146 149 153 149 144 148 151 161 173 173 164 168 179 183 195 200
276 270 260 231 202 179 133 113 125 143 143 145 147 148 146 145 146 147 145 144 142 140 138 142 145 142 145 148 151 141 151 145 145 143 143 153 151 148 157 157 166 177 174 165 174 188 195 191 191
274 266 259 243 224 194 192 167 163 163 156 153 152 153 152 151 153 151 151 148 145 145 145 155 154 147 153 153 163 155 157 143 144 148 150 157 154 159 162 168 173 174 178 174 174 184 184 187 193
263 260 253 239 236 202 193 173 162 168 163 159 163 160 159 160 160 153 152 149 147 146 150 157 143 147 153 154 164 156 140 139 149 151 156 157 163 163 170 177 166 174 176 174 184 173 174 183 198
255 256 254 238 219 207 196 181 162 173 175 171 168 166 165 166 164 158 157 154 151 150 152 155 152 149 152 157 160 159 150 143 145 146 154 155 166 173 181 171 170 180 177 183 182 161 166 194 211
262 268 274 266 257 247 223 200 180 175 178 174 172 172 172 170 162 160 162 157 156 156 157 161 164 156 159 164 171 173 168 165 156 154 153 161 175 180 184 175 160 176 184 183 176 169 186 205 218
262 269 267 266 271 269 253 232 198 185 182 178 176 174 174 170 164 164 169 164 164 164 166 165 169 167 170 172 180 177 171 170 164 160 150 171 180 183 184 183 178 175 181 182 184 187 204 219 210
260 265 265 266 265 265 262 251 231 205 191 178 179 176 175 173 169 169 172 173 171 171 173 173 172 168 176 169 175 180 164 175 161 156 160 173 182 188 187 176 183 180 186 183 190 199 206 213 227
254 256 266 269 265 264 262 261 230 210 201 192 184 177 176 172 169 170 173 175 178 175 173 168 166 168 174 173 178 183 181 187 180 171 169 174 186 188 190 187 183 193 196 191 202 198 200 207 224
264 268 269 272 272 267 260 261 238 207 211 205 188 176 171 172 171 170 174 174 177 173 169 166 164 167 171 179 184 188 190 193 181 169 167 175 183 192 193 186 186 195 197 198 209 196 211 216 223
263 267 263 262 265 263 260 256 247 222 196 188 190 189 168 169 171 169 169 165 171 169 167 166 164 166 171 181 185 190 195 194 191 181 174 186 191 195 196 191 191 195 199 201 203 200 215 221 231
245 252 255 250 242 254 255 248 221 192 171 178 186 190 166 165 168 168 167 167 169 170 170 168 167 172 176 181 190 191 196 195 201 194 186 194 200 194 192 195 189 199 203 204 204 205 216 216 222
248 248 251 262 263 265 255 247 214 174 160 168 175 175 162 166 164 166 167 168 171 173 172 168 168 173 178 183 190 190 190 199 205 205 208 202 208 200 187 184 184 195 201 211 204 211 219 213 218
254 253 260 265 266 271 264 243 206 187 168 160 163 162 163 164 158 161 163 169 170 174 173 171 168 173 181 187 185 189 193 202 201 195 206 215 210 212 187 181 187 198 204 212 208 221 225 216 218
247 256 264 267 274 270 256 243 231 177 172 159 161 152 143 151 156 154 159 169 172 176 173 168 167 173 179 184 189 193 196 199 201 208 201 207 214 213 183 185 189 198 204 209 213 222 227 223 228
241 246 254 268 273 273 271 252 189 150 148 132 138 129 125 137 137 139 144 155 165 169 173 173 171 172 177 183 187 192 189 195 202 208 210 204 213 206 193 195 196 203 207 206 211 223 223 222 228
255 257 254 256 266 272 274 262 188 196 160 155 157 126 117 116 116 114 121 133 144 157 169 173 176 174 175 176 179 188 188 189 197 203 206 206 203 206 194 194 204 216 216 208 212 222 224 224 225
Height
1471 1471 1472 1475 1473 1468 1460 1453 1451 1453 1455 1458 1459 1461 1466 1469 1474 1485 1485 1482 1482 1481 1480 1479 1479 1479 1481 1484 1488 1490 1493 1496 1498 1501 1504 1507 1509 1512 1515 1518 1520 1523 1526 1528 1531 1534 1536 1538 1541
1470 1472 1476 1474 1473 1470 1463 1453 1455 1455 1457 1459 1461 1464 1469 1474 1479 1482 1484 1484 1483 1482 1482 1482 1482 1482 1484 1487 1489 1492 1494 1497 1500 1503 1506 1509 1512 1514 1517 1519 1522 1525 1527 1530 1533 1535 1538 1540 1542
1471 1474 1474 1467 1461 1461 1461 1453 1453 1455 1457 1460 1464 1469 1473 1479 1483 1484 1486 1485 1485 1484 1483 1484 1485 1486 1487 1489 1491 1493 1496 1499 1501 1504 1507 1510 1513 1516 1519 1521 1524 1527 1529 1532 1534 1537 1539 1541 1543
1472 1472 1469 1462 1459 1451 1450 1451 1451 1455 1458 1461 1465 1472 1479 1483 1485 1486 1486 1487 1487 1486 1486 1486 1487 1488 1490 1491 1493 1495 1497 1500 1503 1506 1509 1512 1515 1518 1520 1523 1525 1528 1530 1533 1536 1538 1540 1542 1544
1473 1470 1463 1460 1455 1449 1448 1451 1452 1456 1460 1464 1468 1476 1483 1486 1487 1487 1488 1488 1488 1489 1489 1489 1490 1491 1492 1493 1495 1497 1499 1502 1505 1508 1511 1514 1517 1519 1522 1524 1527 1530 1532 1535 1537 1539 1541 1543 1546
1470 1465 1467 1464 1456 1449 1448 1451 1454 1458 1462 1466 1471 1477 1485 1488 1488 1489 1489 1490 1490 1491 1491 1491 1492 1494 1494 1495 1496 1498 1500 1503 1506 1510 1512 1515 1518 1521 1523 1525 1528 1531 1534 1536 1539 1541 1543 1545 1548
1468 1462 1462 1458 1458 1455 1451 1452 1455 1459 1463 1467 1471 1478 1486 1489 1490 1491 1491 1492 1493 1493 1493 1494 1495 1496 1497 1497 1498 1499 1502 1505 1508 1511 1514 1517 1520 1523 1525 1528 1530 1533 1536 1538 1540 1542 1545 1547 1549
1462 1459 1460 1457 1459 1458 1453 1455 1458 1461 1465 1469 1471 1477 1486 1490 1491 1492 1493 1495 1495 1496 1496 1496 1497 1498 1499 1500 1500 1502 1504 1507 1510 1513 1516 1519 1522 1525 1527 1529 1532 1535 1537 1539 1542 1544 1546 1548 1550
1459 1462 1464 1458 1457 1456 1454 1456 1460 1463 1467 1470 1473 1479 1485 1489 1492 1493 1495 1497 1498 1499 1499 1499 1500 1501 1502 1502 1503 1504 1507 1509 1512 1515 1517 1520 1523 1526 1529 1531 1534 1536 1538 1541 1543 1545 1548 1550 1552
1455 1462 1460 1452 1452 1453 1454 1456 1460 1464 1468 1474 1479 1483 1487 1490 1492 1494 1496 1497 1499 1500 1501 1502 1502 1503 1505 1505 1505 1507 1509 1511 1514 1516 1519 1522 1525 1528 1531 1533 1535 1538 1540 1542 1545 1547 1549 1551 1553
1452 1454 1452 1451 1452 1453 1455 1457 1459 1462 1467 1474 1479 1484 1488 1491 1493 1495 1497 1499 1500 1502 1503 1504 1504 1505 1506 1507 1508 1509 1511 1513 1515 1518 1521 1523 1527 1529 1532 1534 1537 1539 1541 1543 1546 1548 1550 1552 1554
1453 1451 1451 1452 1453 1454 1455 1458 1461 1464 1469 1475 1479 1484 1488 1491 1493 1496 1498 1500 1502 1503 1504 1505 1506 1506 1508 1509 1510 1512 1513 1515 1517 1519 1522 1525 1527 1530 1532 1535 1537 1540 1542 1544 1546 1548 1550 1552 1555
1452 1451 1451 1451 1452 1454 1456 1459 1463 1467 1472 1476 1480 1484 1487 1490 1493 1496 1499 1501 1502 1504 1505 1506 1507 1507 1509 1510 1512 1513 1515 1517 1519 1520 1523 1526 1528 1531 1533 1536 1538 1540 1542 1544 1546 1548 1550 1552 1554
1452 1450 1449 1450 1451 1453 1456 1460 1465 1469 1472 1476 1480 1484 1487 1490 1493 1496 1499 1501 1503 1504 1506 1507 1507 1508 1510 1511 1513 1515 1516 1518 1520 1522 1524 1527 1529 1531 1534 1536 1538 1540 1542 1544 1546 1548 1550 1552 1554
1452 1451 1449 1448 1449 1451 1455 1463 1466 1469 1472 1475 1479 1483 1486 1490 1493 1496 1498 1501 1503 1504 1506 1507 1508 1509 1510 1512 1514 1515 1517 1519 1521 1523 1525 1527 1529 1532 1534 1536 1538 1540 1542 1544 1546 1548 1550 1552 1554
1452 1455 1459 1449 1446 1448 1456 1469 1465 1467 1470 1473 1477 1481 1485 1489 1492 1495 1498 1500 1502 1504 1506 1507 1509 1509 1511 1512 1514 1516 1518 1519 1521 1523 1525 1527 1530 1532 1534 1536 1538 1540 1542 1544 1546 1548 1549 1551 1553
1459 1466 1463 1453 1444 1444 1451 1462 1461 1464 1467 1471 1476 1480 1484 1488 1491 1494 1497 1500 1502 1503 1505 1507 1509 1510 1511 1513 1515 1516 1517 1519 1521 1523 1526 1527 1530 1532 1534 1536 1538 1540 1542 1543 1545 1547 1549 1550 1552
1465 1461 1457 1453 1443 1443 1449 1454 1456 1460 1465 1469 1473 1477 1482 1486 1489 1493 1496 1498 1501 1503 1505 1506 1508 1510 1511 1513 1515 1516 1518 1519 1522 1524 1526 1528 1530 1532 1534 1535 1537 1539 1541 1543 1545 1546 1547 1549 1550
1450 1454 1457 1448 1439 1443 1447 1450 1451 1455 1459 1464 1470 1474 1479 1483 1488 1491 1494 1497 1499 1501 1503 1505 1507 1509 1511 1513 1514 1516 1518 1520 1522 1524 1526 1527 1529 1531 1533 1535 1537 1538 1540 1542 1544 1545 1546 1548 1549
1449 1454 1453 1446 1440 1443 1445 1447 1445 1449 1453 1459 1464 1470 1475 1480 1485 1489 1492 1495 1497 1499 1502 1504 1506 1508 1510 1512 1514 1516 1518 1520 1522 1524 1525 1527 1529 1531 1533 1534 1536 1537 1539 1540 1542 1544 1545 1546 1548
1450 1452 1451 1450 1444 1442 1447 1453 1448 1446 1448 1453 1459 1465 1470 1475 1480 1485 1489 1492 1495 1497 1499 1502 1504 1507 1509 1511 1513 1516 1518 1520 1522 1523 1524 1526 1528 1530 1532 1533 1535 1536 1538 1539 1541 1542 1543 1544 1546
1453 1444 1443 1445 1451 1454 1450 1468 1455 1447 1448 1450 1455 1460 1465 1471 1476 1481 1485 1489 1492 1495 1497 1500 1502 1505 1507 1509 1511 1514 1516 1518 1520 1521 1523 1525 1527 1529 1530 1532 1533 1535 1536 1538 1539 1540 1542 1543 1544
1444 1438 1440 1443 1448 1453 1450 1461 1460 1448 1453 1451 1452 1455 1461 1467 1472 1477 1481 1485 1489 1493 1495 1498 1500 1503 1505 1507 1510 1512 1514 1516 1519 1520 1522 1524 1525 1527 1529 1530 1531 1533 1534 1536 1537 1538 1540 1541 1542
1438 1440 1441 1443 1450 1467 1456 1459 1463 1452 1450 1451 1452 1455 1459 1464 1469 1474 1479 1483 1487 1491 1493 1495 1498 1500 1502 1505 1507 1510 1512 1514 1517 1518 1520 1522 1523 1525 1526 1528 1529 1530 1532 1533 1535 1536 1537 1538 1539
1439 1451 1465 1469 1470 1469 1448 1452 1456 1445 1440 1445 1450 1453 1456 1461 1466 1471 1476 1480 1484 1488 1491 1493 1495 1497 1500 1502 1505 1507 1510 1512 1514 1516 1518 1519 1521 1522 1524 1525 1526 1527 1529 1530 1532 1533 1534 1535 1536
1440 1446 1467 1479 1474 1464 1450 1454 1447 1435 1437 1442 1446 1449 1455 1459 1463 1468 1472 1477 1481 1485 1488 1491 1492 1495 1497 1500 1502 1504 1507 1509 1511 1513 1515 1517 1518 1520 1521 1522 1524 1525 1526 1528 1529 1530 1531 1532 1533
1443 1443 1438 1449 1455 1466 1458 1450 1443 1437 1437 1440 1444 1448 1452 1456 1461 1465 1470 1474 1478 1482 1485 1488 1490 1492 1495 1497 1499 1502 1504 1506 1508 1510 1512 1514 1515 1517 1518 1519 1520 1522 1523 1524 1526 1527 1528 1529 1530
1435 1438 1443 1452 1467 1475 1464 1459 1456 1444 1443 1440 1443 1447 1452 1456 1460 1463 1468 1472 1476 1480 1483 1486 1488 1490 1492 1495 1497 1499 1501 1503 1505 1507 1509 1510 1512 1514 1515 1516 1517 1519 1520 1521 1523 1523 1524 1525 1526
1438 1441 1443 1447 1450 1467 1473 1466 1443 1444 1442 1444 1446 1448 1452 1457 1460 1463 1467 1471 1475 1478 1481 1484 1487 1489 1490 1492 1494 1496 1498 1500 1502 1504 1506 1507 1509 1511 1512 1513 1514 1516 1517 1518 1519 1520 1521 1521 1522
1434 1437 1441 1455 1458 1454 1462 1462 1437 1437 1440 1443 1447 1451 1454 1458 1460 1464 1467 1471 1474 1477 1480 1482 1485 1486 1488 1490 1492 1493 1495 1497 1499 1500 1502 1504 1505 1507 1509 1510 1511 1512 1514 1514 1515 1516 1517 1518 1519